{"data":{"norad_id":67170,"epoch":"2026-05-24T13:10:05.144160Z","epoch_age_seconds":107828,"freshness":"FRESH","line1":"1 67170U 25303H   26144.54867065  .00009728  00000+0  36253-3 0  9999","line2":"2 67170  42.9999 242.5796 0001372 266.2902  93.7792 15.27584737 24338","mean_motion":15.27584737,"eccentricity":0.0001372,"inclination_deg":42.9999,"raan_deg":242.5796,"arg_perigee_deg":266.2902,"mean_anomaly_deg":93.7792,"bstar":0.00036253,"rev_number":2433,"period_min":94.266456394949,"perigee_km":482.09355900788,"apogee_km":483.97626458048,"semimajor_km":6861.1719117942,"source":"CELESTRAK","updated_at":"2026-05-25T13:38:21.480916Z"}}